When you browse on this site, cookies collect data to enhance your experience and personalize the content and advertising you see.
Visit our Privacy Policy to learn more. By continuing to use the site, you agree to this use of cookies and data.
  • In France
  • List of Countries
  • For 7 days
  • Water Temperature
  • Satellite Maps
  • Weather Map
  • Weather Widgets
  • user-avatar
    Login

    Hourly Weather Idzhewan

    Today, 25 April, Thursday

    Time Temperature Precipitation Wind Pressure Humidity
    00:00 +8°C° 0.3 mm 1 mps 699 mmHg 85%
    01:00 +7°C° 0 mm 1 mps 699 mmHg 87%
    02:00 +6°C° 0 mm 1 mps 699 mmHg 89%
    03:00 +6°C° 0 mm 1 mps 699 mmHg 90%
    04:00 +6°C° 0 mm 1 mps 699 mmHg 89%
    05:00 +6°C° 0 mm 1 mps 699 mmHg 89%
    06:00 +6°C° 0 mm 1 mps 699 mmHg 88%
    07:00 +8°C° 0 mm 1 mps 699 mmHg 80%
    08:00 +9°C° 0 mm 1 mps 699 mmHg 73%
    09:00 +11°C° 0 mm 1 mps 699 mmHg 66%
    10:00 +12°C° 0 mm 1 mps 699 mmHg 63%
    11:00 +13°C° 0 mm 2 mps 699 mmHg 60%
    12:00 +14°C° 0 mm 2 mps 699 mmHg 57%
    13:00 +14°C° 0.2 mm 2 mps 699 mmHg 56%
    14:00 +14°C° 0.2 mm 2 mps 698 mmHg 55%
    15:00 +15°C° 0.2 mm 2 mps 698 mmHg 54%
    16:00 +14°C° 0.1 mm 2 mps 698 mmHg 58%
    17:00 +13°C° 0.1 mm 2 mps 698 mmHg 61%
    18:00 +13°C° 0.1 mm 1 mps 698 mmHg 65%
    19:00 +11°C° 0 mm 1 mps 698 mmHg 68%
    20:00 +10°C° 0 mm 1 mps 698 mmHg 71%
    21:00 +8°C° 0 mm 1 mps 699 mmHg 73%
    22:00 +7°C° 0 mm 2 mps 699 mmHg 74%
    23:00 +6°C° 0 mm 2 mps 699 mmHg 75%

    Tomorrow, 26 April, Friday

    Time Temperature Precipitation Wind Pressure Humidity
    00:00 +6°C° 0 mm 2 mps 699 mmHg 76%
    01:00 +6°C° 0 mm 2 mps 699 mmHg 76%
    02:00 +6°C° 0 mm 1 mps 699 mmHg 77%
    03:00 +6°C° 0 mm 1 mps 699 mmHg 77%
    04:00 +6°C° 0 mm 1 mps 699 mmHg 77%
    05:00 +7°C° 0 mm 1 mps 699 mmHg 76%
    06:00 +7°C° 0 mm 1 mps 699 mmHg 76%
    07:00 +9°C° 0 mm 1 mps 699 mmHg 71%
    08:00 +10°C° 0 mm 2 mps 699 mmHg 65%
    09:00 +12°C° 0 mm 2 mps 699 mmHg 60%
    10:00 +13°C° 0 mm 2 mps 698 mmHg 57%
    11:00 +14°C° 0 mm 2 mps 698 mmHg 54%
    12:00 +16°C° 0 mm 3 mps 698 mmHg 52%
    13:00 +16°C° 0 mm 3 mps 697 mmHg 52%
    14:00 +16°C° 0 mm 3 mps 697 mmHg 52%
    15:00 +16°C° 0 mm 3 mps 696 mmHg 53%
    16:00 +15°C° 0 mm 2 mps 696 mmHg 58%
    17:00 +15°C° 0 mm 2 mps 696 mmHg 62%
    18:00 +14°C° 0 mm 2 mps 696 mmHg 67%
    19:00 +12°C° 0 mm 2 mps 696 mmHg 71%
    20:00 +11°C° 0 mm 1 mps 696 mmHg 75%
    21:00 +9°C° 0 mm 1 mps 697 mmHg 80%
    22:00 +9°C° 0 mm 1 mps 697 mmHg 81%
    23:00 +8°C° 0 mm 1 mps 697 mmHg 82%

    Day after tomorrow, 27 April, Saturday

    Time Temperature Precipitation Wind Pressure Humidity
    00:00 +8°C° 0 mm 1 mps 697 mmHg 82%
    01:00 +8°C° 0 mm 1 mps 697 mmHg 84%
    02:00 +7°C° 0 mm 1 mps 697 mmHg 85%
    03:00 +7°C° 0 mm 1 mps 697 mmHg 86%
    04:00 +7°C° 0 mm 1 mps 697 mmHg 85%
    05:00 +8°C° 0 mm 1 mps 697 mmHg 84%
    06:00 +8°C° 0 mm 1 mps 697 mmHg 83%
    07:00 +10°C° 0 mm 1 mps 696 mmHg 76%
    08:00 +12°C° 0 mm 1 mps 696 mmHg 69%
    09:00 +14°C° 0 mm 1 mps 696 mmHg 61%
    10:00 +15°C° 0 mm 2 mps 696 mmHg 58%
    11:00 +16°C° 0 mm 2 mps 696 mmHg 55%
    12:00 +17°C° 0 mm 2 mps 695 mmHg 52%
    13:00 +17°C° 0.5 mm 2 mps 695 mmHg 53%
    14:00 +17°C° 0.5 mm 2 mps 695 mmHg 54%
    15:00 +17°C° 0.5 mm 3 mps 694 mmHg 55%
    16:00 +16°C° 0.5 mm 2 mps 694 mmHg 61%
    17:00 +15°C° 0.5 mm 2 mps 694 mmHg 67%
    18:00 +14°C° 0.5 mm 1 mps 694 mmHg 73%
    19:00 +13°C° 0 mm 1 mps 694 mmHg 76%
    20:00 +12°C° 0 mm 1 mps 694 mmHg 79%
    21:00 +11°C° 0 mm 1 mps 694 mmHg 82%
    22:00 +10°C° 0 mm 1 mps 694 mmHg 82%
    23:00 +10°C° 0 mm 1 mps 694 mmHg 82%

    28 April, Sunday

    Time Temperature Precipitation Wind Pressure Humidity
    00:00 +9°C° 0 mm 1 mps 694 mmHg 81%
    01:00 +9°C° 0 mm 1 mps 694 mmHg 80%
    02:00 +8°C° 0 mm 1 mps 694 mmHg 79%
    03:00 +8°C° 0 mm 1 mps 693 mmHg 77%
    04:00 +7°C° 0 mm 2 mps 693 mmHg 74%
    05:00 +8°C° 0 mm 2 mps 693 mmHg 71%
    06:00 +8°C° 0 mm 2 mps 693 mmHg 69%
    07:00 +12°C° 0 mm 2 mps 693 mmHg 61%
    08:00 +14°C° 0 mm 1 mps 693 mmHg 54%
    09:00 +18°C° 0 mm 1 mps 693 mmHg 47%
    10:00 +19°C° 0 mm 1 mps 693 mmHg 46%
    11:00 +19°C° 0 mm 2 mps 693 mmHg 45%
    12:00 +20°C° 0 mm 2 mps 692 mmHg 43%
    13:00 +20°C° 0.4 mm 2 mps 692 mmHg 44%
    14:00 +20°C° 0.4 mm 2 mps 691 mmHg 44%
    15:00 +20°C° 0.4 mm 2 mps 691 mmHg 44%
    16:00 +21°C° 0.2 mm 1 mps 691 mmHg 49%
    17:00 +20°C° 0.2 mm 1 mps 691 mmHg 55%
    18:00 +19°C° 0.2 mm 1 mps 691 mmHg 60%
    19:00 +16°C° 0.2 mm 1 mps 691 mmHg 63%
    20:00 +15°C° 0.2 mm 1 mps 691 mmHg 66%
    21:00 +13°C° 0.2 mm 2 mps 692 mmHg 69%
    22:00 +13°C° 0 mm 2 mps 692 mmHg 69%
    23:00 +12°C° 0 mm 2 mps 692 mmHg 70%

    29 April, Monday

    Time Temperature Precipitation Wind Pressure Humidity
    00:00 +12°C° 0 mm 2 mps 692 mmHg 70%
    01:00 +12°C° 0 mm 2 mps 692 mmHg 70%
    02:00 +10°C° 0 mm 2 mps 692 mmHg 70%
    03:00 +10°C° 0 mm 2 mps 692 mmHg 70%
    04:00 +10°C° 0 mm 2 mps 692 mmHg 70%
    05:00 +12°C° 0 mm 2 mps 692 mmHg 69%
    06:00 +12°C° 0 mm 2 mps 692 mmHg 69%
    07:00 +14°C° 0 mm 2 mps 692 mmHg 63%
    08:00 +17°C° 0 mm 2 mps 692 mmHg 56%
    09:00 +20°C° 0 mm 1 mps 693 mmHg 50%
    10:00 +21°C° 0.1 mm 1 mps 692 mmHg 48%
    11:00 +21°C° 0.1 mm 2 mps 692 mmHg 47%
    12:00 +23°C° 0.1 mm 2 mps 692 mmHg 45%
    13:00 +23°C° 0.7 mm 2 mps 691 mmHg 47%
    14:00 +23°C° 0.7 mm 2 mps 691 mmHg 48%
    15:00 +23°C° 0.7 mm 2 mps 691 mmHg 49%
    16:00 +21°C° 1.5 mm 1 mps 690 mmHg 58%
    17:00 +20°C° 1.5 mm 1 mps 690 mmHg 67%
    18:00 +18°C° 1.5 mm 1 mps 690 mmHg 76%
    19:00 +18°C° 1 mm 1 mps 691 mmHg 79%
    20:00 +15°C° 1 mm 0 mps 691 mmHg 82%
    21:00 +14°C° 1 mm 0 mps 691 mmHg 85%
    22:00 +14°C° 0.2 mm 0 mps 691 mmHg 88%
    23:00 +14°C° 0.2 mm 1 mps 691 mmHg 91%

    30 April, Tuesday

    Time Temperature Precipitation Wind Pressure Humidity
    00:00 +13°C° 0.2 mm 1 mps 691 mmHg 94%
    01:00 +13°C° 0.2 mm 1 mps 691 mmHg 95%
    02:00 +13°C° 0.2 mm 1 mps 691 mmHg 95%
    03:00 +12°C° 0.2 mm 1 mps 691 mmHg 96%
    04:00 +12°C° 0.3 mm 1 mps 691 mmHg 95%
    05:00 +12°C° 0.3 mm 1 mps 692 mmHg 94%
    06:00 +12°C° 0.3 mm 1 mps 692 mmHg 93%
    07:00 +14°C° 0.2 mm 1 mps 692 mmHg 85%
    08:00 +16°C° 0.2 mm 1 mps 692 mmHg 76%
    09:00 +19°C° 0.2 mm 1 mps 693 mmHg 68%
    10:00 +20°C° 0.1 mm 1 mps 692 mmHg 63%
    11:00 +20°C° 0.1 mm 2 mps 692 mmHg 59%
    12:00 +21°C° 0.1 mm 2 mps 692 mmHg 54%
    13:00 +21°C° 0.4 mm 2 mps 692 mmHg 53%
    14:00 +23°C° 0.4 mm 2 mps 691 mmHg 51%
    15:00 +23°C° 0.4 mm 2 mps 691 mmHg 50%
    16:00 +21°C° 0.6 mm 2 mps 691 mmHg 56%
    17:00 +21°C° 0.6 mm 2 mps 691 mmHg 62%
    18:00 +21°C° 0.6 mm 1 mps 691 mmHg 68%
    19:00 +19°C° 0.7 mm 1 mps 691 mmHg 72%
    20:00 +16°C° 0.7 mm 1 mps 691 mmHg 76%
    21:00 +15°C° 0.7 mm 1 mps 692 mmHg 79%
    22:00 +14°C° 0.3 mm 1 mps 692 mmHg 80%
    23:00 +13°C° 0.3 mm 1 mps 692 mmHg 81%
    Show more